STARLINK-30555, 58040

Orbit data source: Space-Track

STARLINK-30555, 58040 is a payload satellite owned by SpaceX/Seattle (US) in LEO that was launched on Mon, 09 Oct 2023 UTC via an FALCON 9 launch vehicle from the Air Force Western Test Range (AFWTR). Payload-class satellites include a variety of spacecraft equipped with specific instruments for various scientific and technological missions. These include communications satellites like Starlink; space stations such as the ISS; scientific satellites like the Hubble; Earth observation satellites from companies like Planet Labs, Umbra, and HawkEye 360; GPS; miniature CubeSats for education and research; and military/defense satellites.

Loading next visibility...
Identifier
58040, 2023-156N
Orbit
LEO
Country
Flag of USUS
Related business
Manufacturer
SpaceX/Seattle
Mission
Operational Commercial Communications
Bus & Motor
STARLINK V2M, Unknown motor
Mass
730 kg wet, ~700 kg dry
Launch date (UTC)
2023-10-09 (2 years ago)
Launch vehicle
FALCON 9
Launch site
Air Force Western Test Range (AFWTR)
Object type
Payload
Rocket body
Debris
Shape & HBR
Box + 2 Pan, 17.7 m
Radar Cross Section
33.884 m², Large (>1 m²)

Expand to show TLE details & history
Last TLE update: 19 hours ago

TLE from 19 hours ago
0 STARLINK-30555
1 58040U 23156N   25348.91247323 -.00001588  00000-0 -41546-4 0  9995
2 58040  53.1605 201.9221 0001201 110.6593 249.4536 15.30179283122057
Epoch: 2025-12-14T21:53Z
TLE epoch observation values (Epoch: 2025-12-14T21:53:57.687Z)
Latitude
-0.00005°
Longitude
149.61312°
Altitude
476.466 km
Speed
7.629 km/s
True Right ascension
13h 27m 41s
True Declination
0° 00' 00"
Sunlit
Object was in daylight at epoch
Visualization orbit readout
Latitude
Unknown
Longitude
Unknown
Altitude
Unknown
Speed
Unknown
Apparent Right ascension
Unknown
Apparent Declination
Unknown
Sunlit
N/A
Visualization observer readout
Local Sidereal Time
15:11:08
Azimuth
Unknown
Elevation
Unknown
Doppler factor
Unknown
Orbital elements
Apogee altitude
476.356 km
Perigee altitude
474.71 km
Semi-major axis
6,853.67 km
Eccentricity
0.00012
Inclination
53.1605°
RAAN
201.9221°
Arg. of periapsis
110.6593°
True anomaly
249.44071°
Mean anomaly
249.4536°
Eccentric anomaly
249.44716°
Mean motion
3.82524 °/min
Orbital period
94.11 mins
BSTAR
-0.000041546
Loading maneuver chart data...
Computing Atmospheric mass density...
Loading historical data...
Loading historical data...
Loading historical data...
Loading historical data...
Loading historical data...
Loading historical data...
Loading historical data...

Documentation

Showing up to 5 results
|